Regional Weather Roundup
Issued by NWS

Home | Current Version | Previous Version | Text Only | Print | Product List | Glossary On
Versions: 1 2 3 4 5 6 7 8 9 10 11 12 13 14 15 16 17 18 19 20 21 22 23 24 25 26 27 28 29 30 31 32 33 34 35 36 37 38 39 40 41 42 43 44 45 46 47 48 49 50
000
ASCA44 KEWX 282220
RWRMX

LATIN AMERICA AND CARIBBEAN REGIONAL WEATHER ROUNDUP
NATIONAL WEATHER SERVICE AUSTIN/SAN ANTONIO TX
500 PM CDT SUN AUG 28 2016

NOTE: "FAIR" INDICATED FEW OR NO CLOUDS BELOW 12,000 FEET WITH NO
SIGNIFICANT WEATHER AND/OR OBSTRUCTIONS TO VISIBILITY.

BAJA CALIFORNIA

CITY           SKY/WX    TMP DP  RH WIND       PRES   REMARKS
LORETO         MOSUNNY   95  79  59 NE12      29.82F HX 112
LA PAZ         SUNNY     97  57  26 N8        29.84  HX  95
MEXICALI       SUNNY    102  39  11 CALM      29.87F HX  97
S.J. DEL CABO  MOSUNNY   91  66  43 SE10      29.85F HX  94
TIJUANA        SUNNY     75  59  57 W9        29.99F

NORTHWESTERN MEXICO

CITY           SKY/WX    TMP DP  RH WIND       PRES   REMARKS
CULIACAN       PTSUNNY   93  75  55 W6        29.81  HX 104
DURANGO        PTSUNNY   77  54  44 SE5       30.16
GUAYMAS        SUNNY     99  66  34 SW17      29.76  HX 102
HERMOSILLO     SUNNY    104  45  13 CALM      29.86  HX 100
CD. JUAREZ     MOSUNNY   90  59  35 NE7       30.00
LOS MOCHIS     SUNNY     95  70  43 W16       29.80F HX 101
OBREGON        SUNNY    102  48  16 NW7       29.77  HX  99

NORTHEASTERN MEXICO

CITY           SKY/WX    TMP DP  RH WIND       PRES   REMARKS
CHIHUAHUA      PTSUNNY   84  55  37 CALM      30.08
MATAMOROS      MOSUNNY   93  70  46 E18       29.85  HX  99
MONCLOVA       PTSUNNY   82  64  54 NE10      29.98
MONTERREY      PTSUNNY   93  63  36 N9        29.88F HX  94
NUEVO LAREDO   MOSUNNY   93  68  43 E8        29.88  HX  97
PIEDRAS NEGRAS MOSUNNY   93  72  49 E9        29.91  HX 100
REYNOSA        MOSUNNY   93  59  31 NE9       29.84  HX  92
SALTILLO       RAIN      75  66  73 SE9       30.18S
TORREON        PTSUNNY   86  64  48 NE7       30.01F
CD. VICTORIA   MOSUNNY  100  50  18 E6        29.85  HX  97

WESTERN MEXICO

CITY           SKY/WX    TMP DP  RH WIND       PRES   REMARKS
AGUASCALIENTES PTSUNNY   68  55  64 SW6       30.18
COLIMA         TSTM      72  66  83 N14       29.95F
DEL BAJIO      CLOUDY    68  61  77 CALM      30.22F
GUADALAJARA    CLOUDY    77  61  57 S3        30.09
MANZANILLO     PTSUNNY   90  81  74 S6        29.78F HX 108
MAZATLAN       MOSUNNY   91  75  59 W7        29.80F HX 102
P. VALLARTA    MOSUNNY   90  81  74 SW14      29.80F HX 108
URUAPAN        TSTM      63  59  88 NE23      30.16R
ZACATECAS      PTSUNNY   68  55  64 CALM      30.25F

CENTRAL MEXICO

CITY           SKY/WX    TMP DP  RH WIND       PRES   REMARKS
CUERNAVACA       N/A    N/A N/A N/A MISG        N/A
MEXICO CITY    MOSUNNY   75  52  43 N21       30.21F
MORELIA        CLOUDY    73  59  60 S12       30.17
POZA RICA      MOSUNNY   93  77  59 E9        29.90F HX 107
PUEBLA         MOSUNNY   75  52  43 S6        30.24F
QUERETARO      PTSUNNY   77  55  47 SE7       30.22F
S. LUIS POTOSI MOSUNNY   81  43  26 NE12      30.16F
TAMPICO          N/A    N/A N/A N/A MISG        N/A
TOLUCA         PTSUNNY   66  50  55 NW12      30.31F HAZE

SOUTHERN MEXICO

CITY           SKY/WX    TMP DP  RH WIND       PRES   REMARKS
ACAPULCO       CLOUDY    86  77  74 W5        29.83F HX  97
B. DE HUATULCO CLOUDY    86  77  74 W14       29.87  HX  97
OAXACA         CLOUDY    82  52  34 SE3       30.11F
P. ESCONDIDO   CLOUDY    86  75  70 W6        29.93F HX  95
VERACRUZ       MOSUNNY   90  73  58 NE9       29.84F HX  98
ZIHUATANEJO    PTSUNNY   91  75  59 SW9       29.82F HX 102

YUCATAN PENINSULA

CITY           SKY/WX    TMP DP  RH WIND       PRES   REMARKS
CAMPECHE       MOSUNNY   88  81  79 W12G23    29.77F HX 105
CANCUN         PTSUNNY   81  77  89 SW5       29.81F
CHETUMAL       MOSUNNY   88  77  70 CALM      29.79  HX 100
CD. DEL CARMEN PTSUNNY   90  77  66 N8        29.81  HX 102
COZUMEL        PTSUNNY   79  77  94 CALM      29.83F
MERIDA         PTSUNNY   95  70  43 NW10      29.80F HX 101
MINATITLAN     MOSUNNY   86  75  70 N12       29.79  HX  95
TAPACHULA      RAIN      77  75  94 N12       29.80S
TUX. GUTIERREZ TSTM      79  73  83 W23       29.86R VSB 1
VILLAHERMOSA   PTSUNNY   86  77  74 NW9       29.85F HX  97

CENTRAL AMERICA

CITY           SKY/WX    TMP DP  RH WIND       PRES   REMARKS
BELIZE CITY    MOSUNNY   90  79  70 E7        29.80F HX 105
MANAGUA        PTCLDY    91  75  59 NW5       29.74S HX 102

CARIBBEAN

CITY           SKY/WX    TMP DP  RH WIND       PRES   REMARKS
ARUBA          MOSUNNY   86  79  79 E20G31    29.80S HX  99
CURACAO        MOSUNNY   86  73  66 E16       29.86S HX  93
KINGSTON       LGT RAIN  81  75  83 NE3       29.83F
NASSAU         PTSUNNY   86  79  79 E5        29.92R HX  99
SAN JUAN       MOCLDY    84  75  74 E6        29.94S HX  92
SANTO DOMINGO  PTSUNNY   81  75  83 NE5       29.92S
ST. CROIX      PTCLDY    84  77  79 E7        29.95S HX  94
ST. KITTS      PTCLDY    82  77  83 NE5       29.94S HX  91
ST. MAARTEN    PTCLDY    82  79  89 E7        29.94S HX  93

$$





USA.gov is the U.S. government's official web portal to all federal, state and local government web resources and services.